Location: Bremen
(53.0793°N, 8.8017°E)
Time: 02:52:14
(UTC+01:00)

Transit 2A - Pass Details

Date: 09 December 2021
Orbit: 591 x 967 km, 66.7° (Epoch: 17 January)

Event Time Altitude Azimuth Distance (km) Brightness Sun altitude
Exits shadow 07:13:04 - 320° (NW) 2,768 8.3 -10.2°
Reaches altitude 10° 07:13:13 10° 320° (NW) 2,715 8.3 -10.1°
Maximum altitude 07:19:40 85° 49° (NE) 971 6.6 -9.3°
Drops below altitude 10° 07:25:54 10° 139° (SE) 2,626 10.0 -8.4°
Sets 07:28:22 0° 140° (SE) 3,527 10.9 -8.1°
